User: anonymous   Login
Location: Unspecified
(0.0000°N, 0.0000°E)
Time: 23:11:03
(UTC+00:00)
Language:

ICEYE-X2 - Orbit

View from above orbital plane
View from above orbital plane
View from above satellite
View from above satellite

Ground track
Ground track

The orbit data is extracted from the following two-line orbital elements,

1 43761U 18099D   23334.12277431  .00004732  00000-0  39846-3 0  9999
2 43761  97.5541  30.2933 0011316 290.6900  69.3110 14.98632926272418
Epoch (UTC): 30 November 2023 02:56:47
Eccentricity: 0.0011316
inclination: 97.5541°
perigee height: 563 km
apogee height: 579 km
right ascension of ascending node: 30.2933°
argument of perigee: 290.6900°
revolutions per day: 14.98632926
mean anomaly at epoch: 69.3110°
orbit number at epoch: 27241

The dashed part of the orbit path shows where the satellite is in the earth's shadow,  

DLR